Time,TemperatureF,DewpointF,PressureIn,WindDirection,WindDirectionDegrees,WindSpeedMPH,WindSpeedGustMPH,Humidity,HourlyPrecipIn,Conditions,Clouds,dailyrainin,SoftwareType,DateUTC
2013-05-31 00:53:00,60.0,-99.9,-100.00,SE,135,11.0,18.0,-999,-99.99,,,-99.99,,2013-05-31 07:53:00,
2013-05-31 01:02:00,60.0,-99.9,-100.00,SE,135,11.0,18.0,-999,-99.99,,,-99.99,,2013-05-31 08:02:00,
2013-05-31 01:11:00,60.0,-99.9,-100.00,SE,135,11.0,18.0,-999,-99.99,,,-99.99,,2013-05-31 08:11:00,
2013-05-31 02:00:00,58.0,-99.9,-100.00,SE,144,13.0,13.0,-999,-99.99,,,-99.99,,2013-05-31 09:00:00,
2013-05-31 02:53:00,58.0,-99.9,-100.00,SE,144,13.0,13.0,-999,-99.99,,,-99.99,,2013-05-31 09:53:00,
2013-05-31 05:22:00,54.0,-99.9,-100.00,SE,138,10.0,13.0,-999,-99.99,,,-99.99,,2013-05-31 12:22:00,
2013-05-31 05:32:00,54.0,-99.9,-100.00,SE,131,14.0,16.0,-999,-99.99,,,-99.99,,2013-05-31 12:32:00,
2013-05-31 05:42:00,54.0,-99.9,-100.00,SE,131,14.0,16.0,-999,-99.99,,,-99.99,,2013-05-31 12:42:00,
2013-05-31 08:10:00,70.0,-99.9,-100.00,SE,146,11.0,16.0,-999,-99.99,,,-99.99,,2013-05-31 15:10:00,
2013-05-31 08:33:00,70.0,-99.9,-100.00,SSE,150,11.0,15.0,-999,-99.99,,,-99.99,,2013-05-31 15:33:00,
2013-05-31 08:43:00,70.0,-99.9,-100.00,SSE,150,11.0,15.0,-999,-99.99,,,-99.99,,2013-05-31 15:43:00,
2013-05-31 08:53:00,70.0,-99.9,-100.00,SE,146,11.0,16.0,-999,-99.99,,,-99.99,,2013-05-31 15:53:00,
2013-05-31 09:03:00,70.0,-99.9,-100.00,SE,146,11.0,16.0,-999,-99.99,,,-99.99,,2013-05-31 16:03:00,
2013-05-31 10:20:00,77.0,-99.9,-100.00,ESE,120,19.0,19.0,-999,-99.99,,,-99.99,,2013-05-31 17:20:00,
2013-05-31 11:02:00,77.0,-99.9,-100.00,ESE,120,19.0,19.0,-999,-99.99,,,-99.99,,2013-05-31 18:02:00,
2013-05-31 11:12:00,77.0,-99.9,-100.00,ESE,120,19.0,19.0,-999,-99.99,,,-99.99,,2013-05-31 18:12:00,
2013-05-31 13:20:00,81.0,-99.9,-100.00,SE,145,17.0,24.0,-999,-99.99,,,-99.99,,2013-05-31 20:20:00,
2013-05-31 14:01:00,81.0,-99.9,-100.00,SE,145,17.0,24.0,-999,-99.99,,,-99.99,,2013-05-31 21:01:00,
2013-05-31 14:12:00,81.0,-99.9,-100.00,SE,145,17.0,24.0,-999,-99.99,,,-99.99,,2013-05-31 21:12:00,
2013-05-31 17:01:00,82.0,-99.9,-100.00,SE,132,20.0,23.0,-999,-99.99,,,-99.99,,2013-06-01 00:01:00,
2013-05-31 17:10:00,80.0,-99.9,-100.00,North,-999,-999.0,-999.0,-999,-99.99,,,-99.99,,2013-06-01 00:10:00,
2013-05-31 17:12:00,82.0,-99.9,-100.00,SE,132,20.0,23.0,-999,-99.99,,,-99.99,,2013-06-01 00:12:00,
2013-05-31 17:22:00,82.0,-99.9,-100.00,SE,132,20.0,23.0,-999,-99.99,,,-99.99,,2013-06-01 00:22:00,
2013-05-31 17:30:00,80.0,-99.9,-100.00,SE,141,18.0,23.0,-999,-99.99,,,-99.99,,2013-06-01 00:30:00,
2013-05-31 17:52:00,80.0,-99.9,-100.00,North,-999,-999.0,-999.0,-999,-99.99,,,-99.99,,2013-06-01 00:52:00,
2013-05-31 18:02:00,80.0,-99.9,-100.00,North,-999,-999.0,-999.0,-999,-99.99,,,-99.99,,2013-06-01 01:02:00,
2013-05-31 18:22:00,80.0,-99.9,-100.00,SE,141,18.0,23.0,-999,-99.99,,,-99.99,,2013-06-01 01:22:00,
2013-05-31 20:22:00,72.0,-99.9,-100.00,SE,138,17.0,20.0,-999,-99.99,,,-99.99,,2013-06-01 03:22:00,
2013-05-31 20:30:00,67.0,-99.9,-100.00,ESE,102,9.0,13.0,-999,-99.99,,,-99.99,,2013-06-01 03:30:00,
2013-05-31 20:33:00,71.0,-99.9,-100.00,SE,132,18.0,21.0,-999,-99.99,,,-99.99,,2013-06-01 03:33:00,
2013-05-31 20:43:00,71.0,-99.9,-100.00,SE,132,18.0,21.0,-999,-99.99,,,-99.99,,2013-06-01 03:43:00,
2013-05-31 21:23:00,67.0,-99.9,-100.00,ESE,102,9.0,13.0,-999,-99.99,,,-99.99,,2013-06-01 04:23:00,
2013-05-31 21:30:00,65.0,-99.9,-100.00,SE,126,12.0,15.0,-999,-99.99,,,-99.99,,2013-06-01 04:30:00,
2013-05-31 22:22:00,65.0,-99.9,-100.00,SE,126,12.0,15.0,-999,-99.99,,,-99.99,,2013-06-01 05:22:00,
2013-05-31 23:50:00,59.0,-99.9,-100.00,ESE,114,7.0,11.0,-999,-99.99,,,-99.99,,2013-06-01 06:50:00,